Regional Weather Roundup
Issued by NWS

Home | Current Version | Previous Version | Text Only | Print | Product List | Glossary On
Versions: 1 2 3 4 5 6 7 8 9 10 11 12 13 14 15 16 17 18 19 20 21 22 23 24 25 26 27 28 29 30 31 32 33 34 35 36 37 38 39 40 41 42 43 44 45 46 47 48 49 50
000
ASUS45 KTFX 230119
RWRMT
MONTANA HOURLY WEATHER ROUNDUP
NATIONAL WEATHER SERVICE GREAT FALLS MT
619 PM MST SAT NOV 22 2014

NOTE: "FAIR" INDICATES FEW OR NO CLOUDS BELOW 12000 FEET WITH NO
SIGNIFICANT WEATHER AND/OR OBSTRUCTIONS TO VISIBILITY.

* THESE STATIONS ARE NOT UNDER NWS QUALITY CONTROL. THEY DO NOT
   REPORT WEATHER SUCH AS PRECIPITATION OR FOG.

MTZ001>007-043-230200-
WEST OF THE DIVIDE
CITY           SKY/WX    TMP DP  RH WIND       PRES   REMARKS
KALISPELL      CLOUDY    39  23  53 S3        29.65R
MISSOULA       CLOUDY    36  28  73 NW3       29.72R
BUTTE          MOCLDY    30  19  64 NW10      29.64R WCI  21
MULLAN PASS    LGT SNOW  25  23  92 NW9G18    29.67R WCI  16
* ESSEX        N/A       36  19  50 W8G16      N/A   WCI  30
* EUREKA APT   MOCLDY    41  21  45 W8G18     29.66R
* HAMILTON APT CLOUDY    37  23  57 S3        29.72R
* LIBBY APT    MOCLDY    39  25  57 SE3       29.70R
* LINCOLN      N/A       34  22  61 S9G26      N/A   WCI  27
* LOOKOUT PASS N/A       31  25  78 NE2        N/A
* POLSON       N/A       34  23  64 NW2G9      N/A
* RONAN APT    MOCLDY    37  27  67 S7         N/A   WCI  32
* SEELEY LAKE  N/A       35  22  59 N3G14      N/A
* THOMP F APT  CLOUDY    25  14  63 N8G19      N/A   WCI  16
* YAAK HILL    N/A       39  22  51 S4         N/A
$$

MTZ008-052>055-230200-
SOUTHWEST MONTANA
CITY           SKY/WX    TMP DP  RH WIND       PRES   REMARKS
BOZEMAN        MOCLDY    36  18  48 W13       29.62R WCI  27
DILLON         PTCLDY    34  16  48 SW17      29.67R WCI  23
* W YELLOWSTON MOCLDY    22  17  81 SW3        N/A
* ENNIS APT    PTCLDY    34  14  44 N/A        N/A
* THREE FORKS  PTCLDY    41  16  36 N/A        N/A
* BOULDER HILL N/A       31   9  40 W5G14      N/A   WCI  26
* MONIDA PASS  N/A       24  10  55 NW13G20    N/A   WCI  12
* RAYNOLDS PAS N/A       23  21  92 NW1        N/A
* WHITEHALL    N/A       37  16  42 SW6G17     N/A   WCI  32
* WISE RIVER   N/A       30  18  61 W12G23     N/A   WCI  20
$$

MTZ009>010-012-014-046-048-049-054-230200-
EAST SLOPES AND CENTRAL MONTANA
CITY           SKY/WX    TMP DP  RH WIND       PRES   REMARKS
CUT BANK       MOCLDY    36  21  54 W26       29.44R WCI  24
GREAT FALLS    MOCLDY    37  19  48 W22G31    29.48R WCI  26
HELENA         MOCLDY    37  21  52 W8        29.60R WCI  31
MALMSTROM AFB  CLOUDY    39  19  45 W15G25    29.51R WCI  31
* CONRAD       PTCLDY    39  21  48 W28G37     N/A   WCI  27
* DEARBORN     N/A       41  16  36 S17G24     N/A
* EAST GLACIER N/A       32  16  52 W26G43     N/A   WCI  18
* MONARCH      N/A       33  11  40 W26G34     N/A   WCI  20
* PENDROY      N/A       35  17  48 NW24G37    N/A   WCI  23
* ROGERS PASS  N/A       29  18  63 E13G30     N/A   WCI  19
* SAINT MARY   N/A       33  21  61 S10G25     N/A   WCI  25
* SWEET GRASS  N/A       37  21  52 W27G38     N/A   WCI  25
* WHITE SULPH  N/A       33  13  44 W11G27     N/A   WCI  24
$$

MTZ011-013-016-021-035-040-045-047-050-051-230200-
NORTH CENTRAL MONTANA
CITY           SKY/WX    TMP DP  RH WIND       PRES   REMARKS
HAVRE          LGT RAIN  37  34  89 W18       29.40R WCI  27
LEWISTOWN      CLOUDY    39  16  39 W24G36    29.45R WCI  28
* N BAR RANCH  CLOUDY    37  10  33 NW17G28   29.43R WCI  27
* CHINOOK      CLOUDY    39  34  82 W22G32    29.36R WCI  29
* FORT BENTON  CLOUDY    41  21  45 SW8       29.49R
* CHESTER      N/A       40  23  51 NW18G30    N/A   WCI  31
* DENTON       N/A       41  16  36 W32G42     N/A
* GEYSER       N/A       38  13  36 W26G38     N/A   WCI  26
* JUDITH GAP   N/A       36  13  39 W16G27     N/A   WCI  26
* LOMA         N/A       42  22  45 SW17G26    N/A
$$

MTZ017>020-022>027-061-062-230200-
NORTHEAST MONTANA
CITY           SKY/WX    TMP DP  RH WIND       PRES   REMARKS
GLASGOW        PTCLDY    41  25  53 W18       29.29R
GLENDIVE       CLOUDY    41  34  76 W10       29.36R
JORDAN         MOCLDY    43  25  49 W24G29    29.34R
SIDNEY         PTCLDY    36  30  79 CALM      29.33R
WOLF POINT     PTCLDY    39  30  70 W8        29.28R WCI  33
* BEAVER HILL  N/A       41  34  76 SW17       N/A
* CIRCLE       N/A       39  30  70 N/A        N/A
* LINDSAY DVD  N/A       42  32  68 SW14       N/A
* NAVAJO       N/A       39  27  62 W17G24     N/A   WCI  30
* PLENTYWOOD A CLEAR     37  27  67 W12       29.22S WCI  29
* POPLAR APT   PTCLDY    37  30  76 N/A       29.28R
* SACO         N/A       41  27  58 SW24G31    N/A
$$

MTZ028>042-056>058-230200-
SOUTHCENTRAL AND SOUTHEAST MONTANA
CITY           SKY/WX    TMP DP  RH WIND       PRES   REMARKS
BAKER          CLOUDY    43  34  71 SW12      29.37R
BILLINGS       PTCLDY    43  18  37 W25G35    29.48R
LIVINGSTON     MOCLDY    37  18  46 NW13      29.55R WCI  29
MILES CITY     CLOUDY    48  30  50 W22G28    29.37R
* BIG TIMBER A PTCLDY    39  16  39 SW29G46   29.51S WCI  27
* FORSYTH APT  CLOUDY    48  19  32 W17G29    29.42R
* LAUREL APT   PTCLDY    43  16  34 SW11G21    N/A
* ALZADA       N/A       42  29  60 NW1        N/A
* HYSHAM       N/A       43  28  56 W13G23     N/A
* LAME DEER    N/A       36  33  89 SW13G21    N/A   WCI  27
* REED POINT   N/A       41  19  41 W22G29     N/A
* ROSCOE HILL  N/A       31   8  38 SW2G9      N/A
$$

REGIONAL REPORTS...DAKOTAS
CITY           SKY/WX    TMP DP  RH WIND       PRES   REMARKS
WILLISTON      PTCLDY    30  28  92 SW7       29.27S WCI  23
DICKINSON      MOCLDY    37  34  89 SW12      29.31S WCI  29
BEACH          PTCLDY    36  36 100 SW7       29.35R WCI  30
CROSBY         CLEAR     32  32 100 SW9       29.23R WCI  24
TIOGA          CLEAR     37  36  96 SW14      29.28R WCI  28
BISMARCK       CLOUDY    36  34  92 S5        29.35S WCI  32
GRAND FORKS    CLOUDY    36  30  79 SE7       29.40F WCI  30
FARGO          CLOUDY    36  30  79 S18       29.43F WCI  26
BUFFALO SD     MOCLDY    39  30  70 S8        29.31S WCI  33
RAPID CITY     CLOUDY    46  28  50 CALM      29.41R
$$

REGIONAL REPORTS...WYOMING/IDAHO/WASHINGTON
CITY           SKY/WX    TMP DP  RH WIND       PRES   REMARKS
GILLETTE       CLOUDY    43  32  65 SW15      29.42R
SHERIDAN       LGT SNOW  37  28  70 NW32G47   29.49R WCI  24
CODY           MOCLDY    39  10  30 NW9G16    29.56R WCI  33
YELLOWSTONE LA CLOUDY    21  14  74 CALM      29.63S
SALMON         MOCLDY    34  19  54 E5        29.73R WCI  29
MULLAN PASS    LGT SNOW  25  23  92 NW9G18    29.67S WCI  16
SAND POINT     CLOUDY    37  32  82 W7        29.75R WCI  32
SPOKANE        CLOUDY    36  34  92 SW16      29.77R WCI  26
$$

REGIONAL REPORTS...ALBERTA
CITY           SKY/WX    TMP DP  RH WIND       PRES   REMARKS
CALGARY        LGT SNOW  34  28  79 N13       29.42R WCI  25
LETHBRIDGE     MOCLDY    39  21  48 W31G37    29.44R WCI  27
MEDICINE HAT   MOCLDY    37  32  82 NW17G25   29.36R WCI  27
EDMONTON       LGT SNOW  23  19  85 NW14      29.47R VSB 3    WCI  10
WATERTON GATE  N/A       36  19  50 SW18G29    N/A   WCI  26
CARDSTON       N/A       37  21  52 W18G26     N/A   WCI  27
MILK RIVER     N/A       37  23  57 W24G32     N/A   WCI  26
$$

REGIONAL REPORTS...SASKATCHEWAN
CITY           SKY/WX    TMP DP  RH WIND       PRES   REMARKS
SWIFT CURRENT  LGT SNOW  32  32 100 W21G29    29.12R VSB 2 1/4 WCI  20
REGINA         LGT RAIN  36  34  92 S7        29.11S WCI  30
VAL MARIE      N/A       37  30  76 W24G31     N/A   WCI  26
ASSINIBOIA     N/A       37  28  70 W21G26     N/A   WCI  26

$$




USA.gov is the U.S. government's official web portal to all federal, state and local government web resources and services.